This demonstration page uses our WeatherBlox Daily Observations layout. Learn more.

Left ArrowRight Arrow

41.86663, -103.66717

Hourly Observations for September 1, 2015

Temp ( °F °C ) Dew Point ( °F °C ) Humidity (%) Winds ( mph kmh ) Pressure ( in mb ) Visibility ( mi km ) Precip ( " mm )
12:53 am 00:53 Clear 59 15 54 12.2 83 83 Calm 29.88 1012 10 16.0934 0 0
1:53 am 01:53 Clear 59 15 55 12.8 87 87 NNW 3 6 29.87 1011 10 16.0934 0 0
2:53 am 02:53 Clear 58 14.4 54 12.2 87 87 Calm 29.85 1011 10 16.0934 0 0
3:53 am 03:53 Clear 58 14.4 54 12.2 87 87 Calm 29.86 1011 10 16.0934 0 0
4:53 am 04:53 Clear 56 13.3 53 11.7 90 90 Calm 29.86 1011 10 16.0934 0 0
5:53 am 05:53 Clear 56 13.3 53 11.7 90 90 Calm 29.87 1011 10 16.0934 0 0
6:53 am 06:53 Sunny 56 13.3 51 10.6 84 84 W 6 9 29.89 1012 10 16.0934 0 0
7:53 am 07:53 Sunny 60 15.6 53 11.7 78 78 WNW 5 7 29.88 1012 10 16.0934 0 0
8:34 am 08:34 Hazy 64 18 54 12 68 68 WNW 5 7 29.83 1010 1.75 2.816345 0 0
8:49 am 08:49 Sunny 66 19 54 12 64 64 WNW 6 9 29.83 1010 10 16.0934 0 0
8:53 am 08:53 Sunny 66 18.9 53 11.7 63 63 WNW 6 9 29.87 1012 10 16.0934 0 0
9:53 am 09:53 Sunny 74 23.3 54 12.2 50 50 Calm 29.87 1012 10 16.0934 0 0
10:53 am 10:53 Sunny 80 26.7 53 11.7 39 39 WNW 7 11 29.86 1011 10 16.0934 0 0
11:53 am 11:53 Sunny 85 29.4 50 10 30 30 W 6 9 29.83 1010 10 16.0934 0 0
12:53 pm 12:53 Sunny 89 31.7 50 10 26 26 VRB 3 6 29.81 1010 10 16.0934 0 0
1:53 pm 13:53 Sunny 92 33.3 40 4.4 16 16 WSW 5 7 29.79 1009 10 16.0934 0 0
2:53 pm 14:53 Sunny 93 33.9 41 5 16 16 VRB 5 7 29.77 1008 10 16.0934 0 0
3:53 pm 15:53 Sunny 94 34.4 41 5 16 16 VRB 5 7 29.76 1008 10 16.0934 0 0
4:53 pm 16:53 Sunny 92 33.3 41 5 17 17 SSE 6 9 29.76 1008 10 16.0934 0 0
5:53 pm 17:53 Sunny 90 32.2 43 6.1 19 19 SSE 6 9 29.77 1008 10 16.0934 0 0
6:53 pm 18:53 Sunny 81 27.2 55 12.8 41 41 E 6 9 29.78 1009 10 16.0934 0 0
7:53 pm 19:53 Clear 73 22.8 56 13.3 55 55 ESE 7 11 29.8 1009 10 16.0934 0 0
8:53 pm 20:53 Clear 68 20 55 12.8 63 63 ESE 6 9 29.82 1010 10 16.0934 0 0
9:53 pm 21:53 Clear 66 18.9 52 11.1 61 61 E 8 13 29.81 1010 10 16.0934 0 0
10:53 pm 22:53 Clear 64 17.8 50 10 60 60 E 7 11 29.8 1009 10 16.0934 0 0
11:53 pm 23:53 Clear 63 17.2 49 9.4 60 60 W 5 7 29.8 1009 10 16.0934 0 0

Powered by AerisWeather